User: anonymous   Login
Location: Unspecified
(52.0178°N, 0.0000°E)
Time: 16:32:15
(UTC+00:00)
Language:

CAS-4A - Orbit

View from above orbital plane
View from above orbital plane
View from above satellite
View from above satellite

Ground track
Ground track

The orbit data is extracted from the following two-line orbital elements,

1 42761U 17034D   19203.56612759 -.00000036  00000-0  11324-4 0  9996
2 42761  43.0199  44.2453 0010379 104.6091 297.5985 15.09677547115958
Epoch (UTC): 22 July 2019 13:35:13
Eccentricity: 0.0010379
inclination: 43.0199°
perigee height: 530 km
apogee height: 544 km
right ascension of ascending node: 44.2453°
argument of perigee: 104.6091°
revolutions per day: 15.09677547
mean anomaly at epoch: 297.5985°
orbit number at epoch: 11595

The dashed part of the orbit path shows where the satellite is in the earth's shadow,  

DLR